RH
15 13 12 12 12 12 13 13 14 16 14 20 21 26 27 25 24 25 28 30 29 30 31 38 43 46 61 51 58 60 59 65 70 80 82 74 63 60 62 60 58 55 45 43 45 45 46
14 12 12 12 13 13 14 16 23 27 25 15 20 22 27 29 29 25 23 26 28 28 30 36 40 45 61 45 55 59 61 68 75 84 78 75 68 70 66 67 61 56 58 50 46 47 47
13 13 13 13 14 14 15 22 30 33 32 25 16 20 25 29 30 29 25 22 24 26 29 35 39 43 60 47 46 56 56 62 63 73 77 81 80 76 70 58 60 61 62 51 46 44 47
12 13 14 15 15 15 18 27 34 37 35 31 20 21 25 29 28 25 23 23 21 23 28 33 38 44 47 40 40 44 67 77 73 77 73 84 80 78 66 58 56 57 52 62 46 44 42
13 14 15 16 16 16 18 29 35 38 37 34 26 20 26 28 24 22 22 22 21 23 27 32 37 56 36 36 48 41 46 69 76 81 84 80 80 68 64 68 68 60 71 59 54 43 45
14 15 17 17 18 17 17 28 35 38 38 38 32 19 24 26 21 20 22 23 22 24 26 31 34 48 39 37 41 37 47 49 73 71 69 77 63 61 64 65 73 69 59 57 58 49 47
18 18 19 20 19 18 17 24 35 37 39 39 34 20 22 25 22 22 24 23 36 39 29 35 35 35 35 38 34 45 46 62 66 61 50 44 56 42 40 41 46 55 63 54 45 41 47
22 23 22 22 20 18 17 18 32 36 38 40 35 21 23 24 25 23 24 35 24 26 32 27 27 32 33 36 43 45 39 48 42 48 38 39 42 35 39 43 50 51 56 53 40 45 49
20 21 23 23 22 19 17 16 26 37 38 40 37 23 22 25 27 25 25 25 26 29 37 33 38 36 42 39 40 38 45 43 42 41 32 44 36 34 37 42 40 37 39 41 41 42 48
13 15 18 22 22 21 19 16 16 32 38 39 40 30 22 25 30 28 32 28 26 33 47 29 29 41 42 47 42 40 48 46 37 40 36 35 31 36 33 36 38 43 37 37 39 46 78
9 10 12 14 18 21 21 19 16 19 35 38 40 37 27 24 32 49 33 30 29 44 93 24 28 34 43 43 36 41 35 48 40 33 37 31 33 34 35 32 36 35 35 39 40 44 55
12 9 9 8 11 15 20 21 19 16 24 36 40 40 35 26 31 30 30 30 41 68 97 28 32 35 34 34 32 35 40 43 40 38 31 34 30 36 33 33 34 33 36 32 37 39 66
21 15 11 10 8 7 8 14 20 20 17 29 36 40 39 32 35 35 35 46 71 83 29 25 30 32 34 35 31 33 32 28 34 72 46 32 29 30 39 35 33 31 32 63 47 53 40
63 40 23 16 13 10 8 7 8 17 20 21 32 37 40 38 32 40 45 45 73 35 21 32 37 34 38 32 30 32 34 32 39 35 43 55 61 27 35 35 37 36 38 54 53 40 38
100 100 74 42 31 18 12 9 7 6 14 20 26 35 38 43 36 44 56 72 75 25 28 32 29 33 27 31 33 27 30 32 29 32 38 41 30 28 34 35 39 33 36 33 41 37 59
89 97 95 92 77 62 38 17 12 8 7 15 24 35 44 45 39 49 46 60 30 30 37 38 32 31 29 25 30 26 25 30 35 35 38 35 39 27 30 36 41 40 33 41 38 52 46
65 72 75 93 97 94 85 72 34 17 11 12 25 50 48 46 41 58 67 42 31 40 40 36 33 32 29 31 30 25 24 32 35 36 39 36 39 28 27 30 31 32 29 30 34 35 41
72 68 71 83 89 100 95 94 84 54 18 18 41 57 44 51 54 48 42 30 38 43 50 45 43 36 32 30 31 29 28 25 37 36 34 34 36 41 25 30 33 35 32 29 34 31 27
71 72 70 74 79 83 97 98 95 92 51 44 67 61 47 53 51 49 38 34 42 43 42 44 44 43 38 36 35 30 30 37 44 40 33 32 33 41 29 35 36 40 29 30 29 32 37
55 56 61 64 65 67 75 95 100 100 89 51 77 62 68 71 61 41 34 31 38 49 41 43 38 44 45 41 34 35 36 34 50 45 46 38 35 32 36 28 27 33 29 30 33 42 29
52 46 42 42 48 54 58 67 95 100 100 79 81 44 50 60 57 50 38 34 39 42 47 45 43 41 39 37 37 38 35 34 47 51 50 42 49 44 38 34 33 36 37 36 37 38 35
75 53 50 56 53 52 52 57 76 98 100 99 74 53 59 45 45 47 50 39 38 33 42 44 45 33 36 35 29 31 32 32 32 52 48 46 52 46 49 33 40 44 36 34 36 35 35
65 80 78 70 72 72 63 58 56 90 100 99 96 84 79 44 37 41 38 37 41 36 34 30 38 34 38 35 31 31 33 32 33 36 45 47 51 48 51 42 38 40 30 34 37 34 33
91 97 96 97 99 99 98 74 66 65 100 100 98 89 60 50 33 33 30 32 40 41 35 37 38 35 40 39 41 45 47 46 45 43 41 44 50 50 63 55 65 38 35 36 36 33 31
78 97 96 96 84 85 91 99 90 69 73 100 99 100 76 57 38 30 30 32 38 42 42 39 43 42 43 46 41 41 38 46 51 53 52 50 48 57 65 60 41 32 37 36 39 39 35
71 89 84 74 77 82 98 98 98 95 70 66 93 100 100 79 53 36 27 32 41 35 37 47 55 51 50 41 45 50 46 36 48 68 62 57 51 54 58 71 54 37 32 33 32 40 38
78 93 93 90 89 65 67 97 100 99 100 99 90 77 100 96 80 42 37 36 38 36 35 47 66 64 58 49 52 48 46 35 44 50 78 73 68 72 67 91 56 35 36 36 42 45 42
94 100 99 95 99 82 67 93 90 91 100 100 97 57 96 96 91 64 56 52 49 42 40 51 55 61 60 56 50 44 44 39 42 36 54 58 66 72 65 94 85 47 38 47 44 50 51
97 99 98 89 100 87 97 100 97 88 93 100 100 95 98 100 89 85 69 58 52 46 43 54 40 48 46 52 44 40 48 42 39 48 41 52 42 55 61 62 45 56 57 54 55 54 55
Wind_Speed
10 10 10 11 11 11 12 12 13 14 12 8 6 5 6 8 10 11 10 8 8 11 13 12 12 12 10 7 7 10 12 11 11 9 7 8 10 8 6 9 10 12 13 12 15 17 18
8 8 8 9 10 10 11 12 14 16 17 13 7 6 6 7 9 10 12 11 9 10 13 10 10 9 8 8 11 9 11 11 10 8 7 6 6 7 8 5 6 8 13 16 16 16 18
7 6 6 7 8 8 10 11 13 15 17 17 11 6 7 9 10 8 10 11 9 10 12 10 8 7 3 6 12 11 9 9 9 8 6 5 6 9 3 8 10 11 13 14 18 19 14
5 5 5 6 6 8 9 10 13 15 17 19 15 8 9 10 9 8 8 9 9 9 11 11 6 5 5 10 12 11 7 7 9 7 7 6 4 10 9 9 9 9 9 8 2 5 15
3 3 4 5 5 6 8 10 12 15 17 20 17 9 12 10 9 7 5 6 7 8 10 10 5 4 2 11 8 12 9 7 9 7 6 5 5 5 8 7 7 5 8 9 9 3 6
1 2 2 4 5 7 8 10 11 14 17 20 19 10 13 10 8 5 2 4 6 8 9 7 5 3 2 8 12 11 10 10 7 9 7 4 5 6 7 5 9 8 10 8 10 4 7
1 1 1 2 4 5 7 9 11 13 15 19 20 12 13 10 8 4 1 3 4 3 4 5 4 5 7 11 11 6 9 9 7 7 7 4 8 10 13 9 10 10 11 16 12 4 6
5 5 5 5 5 6 7 8 10 13 15 18 19 12 13 8 7 4 2 2 2 2 5 8 9 10 9 9 5 6 8 5 7 10 7 6 6 9 9 6 9 13 15 14 7 6 6
7 7 8 8 8 9 9 10 11 13 15 17 19 13 13 10 5 5 3 2 2 3 5 3 4 6 5 7 5 5 5 6 8 8 10 8 12 8 8 10 10 10 10 12 15 13 11
9 9 8 9 9 10 10 11 11 12 14 16 18 15 14 10 5 7 4 2 3 2 3 2 1 2 3 5 4 5 3 4 4 7 10 7 3 7 10 6 6 11 6 10 13 9 6
7 7 8 9 9 10 11 11 12 12 13 14 16 15 12 11 6 4 5 3 2 1 2 2 1 4 3 4 10 3 6 2 8 11 4 5 9 10 9 4 5 8 7 11 12 10 5
8 8 9 10 11 11 12 13 13 13 13 14 15 14 12 9 8 5 3 2 1 1 4 0 2 3 6 4 3 6 3 4 7 8 7 17 10 4 5 11 9 13 13 14 9 8 3
9 10 10 11 12 12 13 14 15 15 15 14 14 14 12 8 4 6 3 1 2 2 0 2 2 3 6 4 4 2 5 6 4 6 6 12 7 2 3 10 6 10 11 5 3 1 4
10 10 10 11 12 13 13 14 14 15 16 16 16 15 12 9 6 3 3 3 3 2 2 2 3 9 4 3 3 4 5 4 3 4 8 5 5 1 2 3 6 8 5 3 6 8 8
16 15 13 13 12 13 14 13 14 14 16 16 17 17 13 7 4 1 0 3 3 1 1 2 4 3 2 2 4 4 3 3 2 3 5 5 4 2 1 3 3 4 4 4 5 3 4
19 19 17 16 15 15 15 15 14 15 14 15 17 17 12 5 2 1 2 4 2 2 2 0 3 0 4 5 5 3 2 3 2 1 1 3 8 2 1 3 5 4 5 2 1 5 5
21 22 24 20 19 18 17 17 16 15 14 13 13 7 6 3 2 2 3 4 2 3 3 3 2 3 5 4 3 5 4 2 1 2 2 4 3 3 4 1 6 2 2 2 3 2 3
19 19 20 21 23 19 19 18 17 17 12 10 5 4 5 4 3 4 3 3 1 4 4 4 3 4 3 2 4 4 4 3 1 1 3 2 4 6 11 2 2 4 4 4 4 3 3
19 19 19 18 20 23 21 17 17 17 13 8 4 6 8 9 4 5 3 3 4 6 6 5 5 7 2 3 4 5 4 1 4 2 3 1 3 6 2 2 3 3 1 5 5 4 8
16 18 19 19 19 19 19 19 13 15 14 7 6 3 4 10 9 6 6 6 6 8 5 6 3 4 5 5 8 4 4 1 5 5 2 1 4 8 8 12 9 11 11 6 8 5 7
18 18 18 19 19 18 19 18 16 15 15 8 6 8 6 4 9 13 8 4 5 6 8 11 5 13 8 5 5 6 6 4 6 4 3 3 6 8 13 17 17 18 17 14 15 14 7
18 19 18 18 17 17 17 17 18 14 20 15 7 6 4 13 6 12 11 10 13 8 9 6 10 8 14 8 7 4 4 4 5 5 4 3 4 5 8 12 6 12 13 13 13 14 15
20 20 21 20 20 20 18 15 17 22 17 22 16 19 9 12 11 11 13 15 12 12 14 14 16 9 11 17 15 12 10 11 7 4 6 3 3 5 7 7 17 14 5 6 4 4 6
17 17 21 20 18 17 20 20 17 18 21 28 26 17 15 16 14 16 15 18 15 18 13 6 12 11 6 5 2 5 6 9 10 11 10 6 4 3 6 8 5 3 3 3 3 5 5
20 17 19 23 26 26 22 22 22 22 24 32 31 29 19 15 24 26 28 23 17 13 12 12 10 4 8 6 3 5 4 3 3 2 7 9 7 4 3 5 13 5 1 2 1 5 8
21 19 21 25 25 29 24 23 24 26 28 30 44 36 29 20 24 30 27 30 17 15 12 8 8 11 10 5 4 5 5 1 4 4 1 5 7 6 2 4 4 4 3 2 1 2 8
20 18 21 23 26 28 29 26 24 29 30 32 45 50 40 27 41 24 18 19 23 18 11 6 9 8 10 6 7 6 6 1 5 5 6 5 5 10 9 5 8 4 2 1 4 3 4
19 20 23 23 26 30 31 30 28 30 31 30 46 50 52 38 39 27 42 17 8 21 12 9 7 6 7 8 6 5 5 7 3 3 5 8 8 5 5 5 8 6 3 3 4 3 2
24 22 25 27 26 30 30 32 34 32 30 19 38 44 50 38 28 31 40 35 28 17 15 18 4 7 12 6 6 4 4 5 6 4 5 6 8 4 9 5 6 4 3 3 1 2 1
Wind_Direction
71 68 62 55 49 42 38 31 30 28 18 358 316 313 304 281 273 272 277 296 323 335 348 1 11 11 32 11 351 344 354 352 354 349 336 330 310 316 305 328 337 260 268 273 270 266 261
74 66 61 55 45 39 34 29 25 22 19 11 344 312 308 309 290 275 269 274 294 318 334 340 4 1 12 20 350 351 356 2 352 347 333 334 328 322 295 279 283 304 298 290 276 262 259
82 72 59 51 42 35 31 24 21 18 17 11 357 324 321 318 308 287 270 263 276 301 322 331 353 345 327 351 356 359 359 357 358 7 342 325 323 300 310 282 284 278 286 289 264 249 241
81 72 59 47 37 25 23 19 15 12 12 9 1 344 333 328 315 298 275 255 264 289 314 329 326 347 306 329 349 346 333 313 329 331 347 306 314 297 277 303 278 275 278 286 146 306 237
89 67 51 38 20 19 13 12 9 8 8 7 5 352 345 338 325 305 275 247 259 284 309 320 323 302 331 331 338 322 323 304 304 299 307 300 308 308 309 274 288 256 290 300 311 323 263
96 95 57 27 13 4 2 1 6 3 3 3 1 353 353 347 340 325 274 255 274 288 298 308 323 273 258 318 313 313 314 319 302 305 296 287 274 277 215 253 338 316 308 286 268 245 235
322 350 1 20 9 4 355 355 356 357 360 1 359 352 356 356 354 355 345 310 329 296 275 268 305 284 304 314 311 305 319 309 289 285 303 351 294 353 343 327 312 326 297 298 309 340 278
330 331 337 345 349 352 350 350 352 353 357 359 359 355 354 359 356 349 331 297 283 266 300 271 263 285 289 318 303 273 328 316 306 307 314 268 289 356 324 311 299 295 295 309 345 303 260
334 336 341 340 344 346 346 348 350 353 354 357 359 357 357 354 1 352 329 278 290 309 264 236 247 279 290 313 294 295 316 312 294 301 319 289 297 329 323 317 304 303 295 303 321 338 313
336 337 340 338 338 339 341 344 345 349 352 353 358 357 354 356 10 345 330 323 319 339 282 136 220 244 307 307 262 257 288 306 279 308 325 284 316 298 319 303 320 301 327 299 297 308 341
346 341 336 333 330 331 331 335 337 340 346 351 354 356 353 353 340 343 314 324 338 54 16 135 205 272 265 253 318 190 304 242 282 299 299 294 309 318 305 300 269 281 286 288 293 288 291
345 337 336 332 330 330 328 328 330 333 338 343 348 350 347 350 345 333 329 348 26 301 262 29 268 285 295 205 248 304 277 266 274 289 246 268 295 273 301 309 272 307 294 273 259 267 264
330 330 330 330 330 330 330 329 328 328 331 335 339 341 339 337 332 334 329 48 285 269 146 336 312 308 314 277 292 275 310 302 345 340 330 318 238 250 285 306 201 287 329 314 338 341 13
310 306 306 312 319 321 321 323 324 325 327 329 331 330 327 317 324 352 341 251 242 266 285 79 306 297 276 341 204 292 285 285 147 304 305 328 322 297 12 333 317 322 334 352 317 347 331
297 302 301 298 301 304 307 312 316 321 323 326 325 324 313 301 298 3 119 276 259 234 83 306 287 278 247 254 290 308 228 297 6 353 327 324 290 130 239 305 305 7 309 336 286 231 262
288 287 290 293 298 304 304 302 306 310 317 322 326 322 293 277 211 128 242 250 293 18 100 1 296 34 307 345 303 300 286 123 175 200 301 357 291 66 1 255 211 285 335 287 250 324 336
290 287 285 283 292 295 303 311 308 308 312 319 324 316 276 247 219 206 233 243 230 197 202 189 276 283 263 307 292 303 305 147 221 166 245 306 261 298 263 187 345 281 309 290 277 272 313
291 289 286 278 271 280 289 298 310 312 307 314 308 261 248 208 251 222 234 221 203 187 202 238 239 238 259 298 273 274 283 306 143 271 283 47 306 287 295 108 310 293 308 306 304 353 284
285 284 285 286 283 278 271 281 292 308 315 314 263 253 249 207 239 217 203 232 236 186 205 195 230 227 197 239 276 242 277 84 196 240 326 71 235 298 207 186 160 257 234 285 284 281 260
299 288 285 284 286 283 279 267 276 289 298 279 289 264 214 198 259 270 237 233 215 203 209 199 230 201 197 231 220 272 255 215 199 226 217 211 272 257 274 304 315 290 296 265 271 273 292
304 302 298 293 286 284 280 270 258 265 276 266 230 242 257 209 226 224 231 269 214 207 215 197 207 221 205 231 220 228 244 255 203 195 191 237 265 279 272 283 285 280 278 269 240 241 268
316 309 307 307 298 285 281 271 247 250 260 237 244 251 266 264 255 215 212 217 223 210 176 213 228 212 213 224 227 274 230 216 279 168 217 197 271 301 289 280 282 277 260 252 252 254 259
319 320 319 311 309 305 285 273 261 231 251 238 238 249 280 259 229 224 221 233 224 201 220 229 213 209 221 235 259 275 269 264 271 248 225 227 270 307 282 339 311 279 337 204 210 235 252
332 326 321 325 314 313 307 288 267 244 232 239 242 229 235 253 247 236 251 241 227 211 237 207 203 199 185 200 251 273 247 251 247 247 238 241 244 277 292 304 250 58 65 50 266 10 270
322 311 313 312 313 306 291 295 287 263 249 249 243 221 234 254 253 251 244 244 241 240 228 227 201 193 174 134 257 274 201 226 204 238 230 232 245 268 272 289 295 238 101 111 213 61 18
319 315 306 314 318 319 311 296 298 301 285 260 247 244 226 253 238 252 251 234 237 235 228 216 201 193 171 200 186 235 239 216 194 173 125 191 235 242 182 268 273 49 39 10 242 148 23
310 314 317 319 319 325 324 308 306 301 297 276 263 235 225 239 250 241 238 235 226 233 236 167 167 167 184 191 210 222 237 187 217 201 176 167 188 219 228 254 280 35 54 329 204 112 29
302 306 311 314 316 323 324 315 301 298 305 278 258 237 224 230 249 237 228 239 223 220 215 142 138 178 181 205 210 200 229 198 211 197 184 180 177 195 194 231 252 17 151 280 40 90 56
299 303 308 313 313 318 322 320 317 307 303 292 259 237 223 225 246 236 228 223 227 238 231 183 240 160 178 191 202 200 195 180 209 235 202 216 203 196 198 218 133 83 91 108 11 307 24